Погода в Куливертове

Россия / Костромская область     59°07′12″N   42°55′19″E
темп.,
°C
ветер,
м/с
пор.,
м/с
влажн.,
%
обл.,
%
осадки,
мм/ч
давл.,
гПа
погр.,
м
31 июля, сб
сб3100:00+17юз119171 0.3 100111
03:00+16ююз31099100 2.5 1000347
06:00+16ю259996 5.3 1000207
09:00+19юз3788100 5.8 999545
12:00+24зюз58462 0.0 9991522
15:00+24зюз5941100 0.0 9992778
18:00+20зюз495681 0.0 1001792
21:00+15юз267922 0.0 1002123
1 августа, вс
вс100:00+16юз413735 0.0 1003527
03:00+14зюз312795 0.0 1004437
06:00+15зюз311820 0.0 1006462
09:00+20з4760100 0.0 10071095
12:00+24з484353 0.0 10082068
15:00+23юз3752100 0.0 1008662
18:00+22юз396091 0.0 1007608
21:00+17юз311814 0.1 1008405
2 августа, пн
пн200:00+15ююз3119748 0.2 1008335
03:00+15юз399947 0.2 1008272
06:00+16ююз279698 0.0 1009211
09:00+22юз3566100 0.0 1009518
12:00+22зюз257489 0.4 1009327
15:00+27юз47385 0.9 10082386
18:00+24ююз4662100 0.0 1006584
21:00+20ююв2784100 0.0 1005214
3 августа, вт
вт300:00+19ю4139198 0.0 1004591
03:00+18ююв41494100 0.1 1002512
06:00+18ю31190100 0.1 1002533
09:00+20ююз3783100 0.1 1001509
12:00+18ю3795100 1.6 1002480
15:00+20зюз478275 2.4 1003809
18:00+20зюз247599 0.1 1004140
21:00+17зсз1285100 0.2 100544
4 августа, ср
ср400:00+16зюз2387100 0.0 100677
03:00+15зсз388994 0.1 1007280
06:00+15зюз249197 0.2 1009166
09:00+20з35596 0.2 1009838
12:00+23з454585 0.0 10102151
15:00+21з4651100 0.0 10111085
18:00+21зюз245611 0.0 1012939
21:00+16зсз377637 0.0 1014223